DELTA 1 DEB

Satellite information

Favourite Embed

Satellite Type and Status

DEBRISIN ORBIT

Key statistics

Satellite DELTA 1 DEB at a glance.

Uptime

19031

Days in orbit

Revolutions

≈ 14.1

Per day

Orbit

SSO

Sun Synchronous Orbit

Inclination

102.7

Latest

Satellite identification and parameters

Extended collection of information and parameters for DELTA 1 DEB.

Object identification

Identified? True

Debris? True

Object name: DELTA 1 DEB

International designator: 1973-086GR

Object number (NORAD): 14480

Object ID (CCSDS): 14480

Country: UNITED STATES OF AMERICA (US)

Current information (Y/N): Y

RCS size: SMALL

Orbital parameters

Period: 101.906 minutes

Inclination: 102.6501 deg

SMA: 7227.023 km

Apoapsis: 910.061 km

Periapsis: 787.715 km

RAAN: 111.9785 deg

Eccentricy: 0.00846444

Argument of periapsis: 181.1072 deg

Mean anomaly: 203.5589 deg

Mean motion: 14.13069819 rev/day

Mean motion (dot): 0.00060945 rev/day2

B* drag term: 0.031303065 1/REarth

Two-line elements (TLE)

Creation date: Dec. 14, 2025, 3:07 a.m.

Reference frame: TEME

Reference center: EARTH

Epoch: Dec. 13, 2025, 2:25 p.m. UTC

TLE line 0: 0 DELTA 1 DEB

TLE line 1: 1 14480U 73086GR 25347.60106552 .00060945 00000-0 31303-1 0 9992

TLE line 2: 2 14480 102.6501 111.9785 0084644 181.1072 203.5589 14.13069819 33091

Live tracking on map

Real-time ground track for satellite DELTA 1 DEB.

In-orbit conjunctions

A list of the most updated potential collisions computed for object DELTA 1 DEB.

Target Orbit TCA Probability of collision Miss distance Type
SL-16 DEB LEO 2025-03-12 14:29:14 0.000280974 63.0 (m) DEBRIS
COSMOS 1275 DEB LEO 2024-11-12 17:43:05 0.0002373085 539.0 (m) DEBRIS

Associated space launch

Meteorological satellite using radiometric imaging

DELTA 1 DEB was lifted into orbit during the mission ‘Delta 0300 | NOAA 3’, on board a Delta 0300 space rocket.

The launch took place on Nov. 6, 1973, 5:02 p.m. from Space Launch Complex 2W.

For more information about the launch, click the button.

Launch to space Delta 0300 | NOAA 3
Delta 0300 | NOAA 3

Agency: N/A

Status: Launch Successful

Launch date: Nov. 6, 1973, 5:02 p.m. UTC

Rocket: Delta 0300

Launch pad: Space Launch Complex 2W

Location: Vandenberg SFB, CA, USA

...

Latest news about this satellite

There are no fresh news available about this satellite. Check back as we update our databases every day.


Newsletter sign-up

Weekly statistics, charts and insights to help you stay on top of the space industry.